Home   Weather   Palikir   Past weeks

Flag for Micronesia Past Weather in Palikir, Pohnpei, Micronesia — Yesterday and Last 2 Weeks

76 °F

Partly cloudy.

Feels Like: 75 °F
Forecast: 76 / 87 °F
Wind: 5 mph from Southeast

Location: Pohnpei

Current Time: Oct 23, 2016 at 6:45:45 AM

Latest Report: Oct 23, 2016 at 5:54 AM

Visibility: 15 mi

Pressure: 29.78 "Hg

Humidity: 95%

Dew Point: 74 °F

Location of PalikirLocation

Past Weather in Palikir — Graph


Palikir Temperature Yesterday

Maximum temperature yesterday: 90 °F (at 1:52 PM)
Minimum temperature yesterday: 76 °F (at 12:50 AM)
Average temperature yesterday: 84 °F

High & Low Weather Summary for the Past Weeks

High91 °F (Oct 8, 11:53 AM)100% (Oct 12, 1:01 AM)29.98 "Hg (Oct 12, 1:01 AM)
Low74 °F (Oct 16, 1:50 AM)50% (Oct 8, 12:57 PM)29.70 "Hg (Oct 12, 3:53 AM)
Average81 °F87%29.82 "Hg
* Reported Oct 8 4:52 AM — Oct 23 4:53 AM, Palikir, Weather by CustomWeather, © 2016

Note: Actual official high and low records may vary slightly from our data, if they occured in-between our weather recording intervals... More about our weather records


Palikir Weather History for the Previous 24 Hours

Scroll right to see more
Time TempWeatherWind HumidityBarometerVisibility
4:53 AM
Sun, Oct 23
76 °FMostly cloudy.6 mph96%29.77 "Hg15 mi
3:52 AM76 °FPassing clouds.6 mph94%29.75 "Hg15 mi
2:54 AM77 °FPassing clouds.6 mph94%29.75 "Hg15 mi
1:52 AM77 °FPassing clouds.6 mph94%29.77 "Hg15 mi
12:52 AM77 °FPassing clouds.3 mph95%29.80 "Hg15 mi
11:56 PM
Sat, Oct 22
78 °FPassing clouds.5 mph92%29.83 "Hg15 mi
10:56 PM78 °FPartly cloudy.5 mph92%29.83 "Hg15 mi
9:53 PM78 °FPartly cloudy.3 mph94%29.84 "Hg15 mi
8:53 PM78 °FPassing clouds.3 mph94%29.84 "Hg15 mi
7:52 PM80 °FPartly cloudy.5 mph91%29.83 "Hg15 mi
6:51 PM81 °FPassing clouds.3 mph84%29.81 "Hg15 mi
5:50 PM85 °FScattered clouds.3 mph77%29.80 "Hg15 mi
4:54 PM86 °FPartly sunny.7 mph75%29.79 "Hg15 mi
3:52 PM88 °FScattered clouds.3 mph69%29.78 "Hg15 mi
2:53 PM88 °FScattered clouds.3 mph70%29.78 "Hg15 mi
1:52 PM90 °FScattered clouds.2 mph66%29.79 "Hg15 mi
12:53 PM89 °FScattered clouds.3 mph67%29.81 "Hg15 mi
11:52 AM88 °FScattered clouds.3 mph67%29.84 "Hg15 mi
10:52 AM88 °FScattered clouds.3 mph67%29.86 "Hg15 mi
9:56 AM89 °FScattered clouds.3 mph67%29.88 "Hg15 mi
8:52 AM86 °FPassing clouds.3 mph73%29.88 "Hg15 mi
7:55 AM83 °FSunny.3 mph82%29.87 "Hg15 mi
Weather by CustomWeather, © 2016

See weather overviewHow to use our weather pages